Hourly Data Report for April 25, 2017

KUGAARUK CLIMATE
NUNAVUT

68°32'15.060" N
89°47'47.020" W
15.80 m
2303094
71407
NBB

Download Data

Hourly Data (April 2017)
Hourly Data Report for April 25, 2017
TIME
LST
Temp Definition
°C
Dew Point Definition
°C
Rel Hum Definition
%
Precip. Amount Definition
mm

Wind Dir Definition
10's deg

Wind Spd Definition
km/h
Visibility Definition
km
Stn Press Definition
kPa
Hmdx Definition


Wind Chill Definition


Weather Definition


00:00 -20.3 -22.8 80 0.0 24 30   102.12   -33 LegendNANA
01:00 -20.1 -22.6 80 0.0 23 30   102.12   -33 LegendNANA
02:00 -20.0 -22.5 80 0.0 24 32   102.16   -33 LegendNANA
03:00 -20.0 -22.8 79 0.0 23 30   102.15   -33 LegendNANA
04:00 -20.3 -23.0 79 0.0 23 32   102.15   -33 LegendNANA
05:00 -20.4 -23.6 76 0.0 23 31   102.14   -33 LegendNANA
06:00 -20.3 -23.5 75 0.0 23 33   102.14   -33 LegendNANA
07:00 -20.0 -23.3 75 0.0 23 31   102.13   -33 LegendNANA
08:00 -19.9 -23.6 72 0.0 24 32   102.11   -33 LegendNANA
09:00 -19.7 -23.5 72 0.0 24 30   102.09   -32 LegendNANA
10:00 -19.5 -23.3 72 0.0 24 30   102.09   -32 LegendNANA
11:00 -19.1 -23.2 70 0.0 25 27   102.09   -31 LegendNANA
12:00 -18.6 -23.2 67 0.0 24 27   102.09   -30 LegendNANA
13:00 -18.1 -22.5 69 0.0 24 30   102.05   -30 LegendNANA
14:00 -17.9 -22.8 65 0.0 23 28   102.06   -29 LegendNANA
15:00 -18.1 -23.4 63 0.0 23 24   102.01   -29 LegendNANA
16:00 -18.1 -23.4 63 0.0 23 24   101.96   -29 LegendNANA
17:00 -18.3 -23.4 64 0.0 23 19   101.92   -28 LegendNANA
18:00 -18.5 -23.3 66 0.0 23 23   101.86   -29 LegendNANA
19:00 -19.6 -24.6 64 0.0 26 5   101.84   -24 LegendNANA
20:00 -20.9 -24.3 74 0.0 1 5   101.79   -25 LegendNANA
21:00 -25.3 -28.4 75 0.0 3 10   101.74   -34 LegendNANA
22:00 -25.4 -28.3 77 0.0 4 6   101.70   -31 LegendNANA
23:00 -27.6 -31.0 73 0.0 6 2   101.65   -30 LegendNANA

Notes on Data Quality.

Legend

  • E = Estimated
  • M = Missing
  • NA = Not Available*
  • [empty] = Indicates an unobserved value
Date modified: